TimeCDT,TemperatureF,Dew PointF,Humidity,Sea Level PressureIn,VisibilityMPH,Wind Direction,Wind SpeedMPH,Gust SpeedMPH,PrecipitationIn,Events,Conditions,WindDirDegrees,DateUTC
12:53 AM,59.0,55.9,90,29.97,10.0,WSW,4.6,-,N/A,,Clear,250,2012-10-03 05:53:00
1:53 AM,57.9,55.0,90,29.96,10.0,WSW,3.5,-,N/A,,Clear,250,2012-10-03 06:53:00
2:53 AM,55.9,54.0,93,29.96,10.0,Calm,Calm,-,N/A,,Clear,0,2012-10-03 07:53:00
3:53 AM,54.0,52.0,93,29.95,10.0,Calm,Calm,-,N/A,,Clear,0,2012-10-03 08:53:00
4:53 AM,53.1,51.1,93,29.96,9.0,Calm,Calm,-,N/A,,Clear,0,2012-10-03 09:53:00
5:53 AM,51.1,50.0,96,29.97,9.0,Calm,Calm,-,N/A,,Clear,0,2012-10-03 10:53:00
6:53 AM,52.0,50.0,93,29.99,9.0,Calm,Calm,-,N/A,Fog,Patches of Fog,0,2012-10-03 11:53:00
7:53 AM,52.0,51.1,97,29.99,8.0,Calm,Calm,-,N/A,Fog,Patches of Fog,0,2012-10-03 12:53:00
8:53 AM,63.0,55.9,78,30.00,10.0,Calm,Calm,-,N/A,,Clear,0,2012-10-03 13:53:00
9:53 AM,68.0,57.0,68,30.02,10.0,South,5.8,-,N/A,,Partly Cloudy,180,2012-10-03 14:53:00
10:53 AM,75.9,57.0,52,30.02,10.0,South,9.2,-,N/A,,Partly Cloudy,180,2012-10-03 15:53:00
11:53 AM,79.0,55.9,45,30.01,10.0,South,11.5,-,N/A,,Partly Cloudy,180,2012-10-03 16:53:00
12:53 PM,81.0,55.0,41,29.99,10.0,SSE,11.5,-,N/A,,Clear,160,2012-10-03 17:53:00
1:53 PM,82.0,55.9,41,29.96,10.0,South,6.9,-,N/A,,Clear,170,2012-10-03 18:53:00
2:53 PM,82.9,55.0,38,29.94,10.0,SSE,5.8,-,N/A,,Clear,150,2012-10-03 19:53:00
3:53 PM,84.0,55.9,38,29.93,10.0,South,10.4,-,N/A,,Clear,180,2012-10-03 20:53:00
4:53 PM,84.0,55.9,38,29.93,10.0,SSE,11.5,-,N/A,,Clear,160,2012-10-03 21:53:00
5:53 PM,82.9,55.0,38,29.94,10.0,South,8.1,17.3,N/A,,Clear,170,2012-10-03 22:53:00
6:53 PM,80.1,55.9,43,29.95,10.0,SSE,6.9,-,N/A,,Clear,150,2012-10-03 23:53:00
7:53 PM,72.0,57.9,61,29.96,10.0,SE,4.6,-,N/A,,Clear,140,2012-10-04 00:53:00
8:53 PM,73.9,57.0,55,29.96,10.0,SE,5.8,-,N/A,,Clear,140,2012-10-04 01:53:00
9:53 PM,72.0,59.0,64,29.99,10.0,SSE,8.1,-,N/A,,Clear,160,2012-10-04 02:53:00
10:53 PM,66.9,60.1,79,30.00,10.0,South,4.6,-,N/A,,Clear,170,2012-10-04 03:53:00